Rochester, Indiana, United States (46975)
Lat: 41.06N, Lon: 86.22W
Wx Zone: INZ015
Local Info
Past Weather Observations for Today

NOTE: This archive is for the closest National Weather Service station to Rochester. Information may differ from the station used for current weather conditions.

Click here for Long-term Archive

Time Weather Temperature Dewpoint Humidity Pressure Winds Precip Visibility
22:55
Mostly Cloudy
59°F / 15°C 55°F / 13°C 88% 30.09 in
(1019 mb)
NNW 3.5 mph
(NNW 6 kph)
- 10SM
22:35
Clear
59°F / 15°C 55°F / 13°C 88% 30.09 in
(1019 mb)
Calm - 10SM
22:15
Partly Cloudy
61°F / 16°C 55°F / 13°C 83% 30.09 in
(1019 mb)
N 3.5 mph
(N 6 kph)
- 10SM
21:55
Mostly Cloudy
61°F / 16°C 55°F / 13°C 83% 30.09 in
(1019 mb)
N 4.6 mph
(N 7 kph)
- 10SM
21:35
Overcast
63°F / 17°C 57°F / 14°C 83% 30.09 in
(1019 mb)
NNW 5.8 mph
(NNW 9 kph)
- 10SM
21:15
Mostly Cloudy
63°F / 17°C 57°F / 14°C 83% 30.09 in
(1019 mb)
NW 4.6 mph
(NW 7 kph)
- 10SM
20:55
Partly Cloudy
63°F / 17°C 57°F / 14°C 83% 30.09 in
(1019 mb)
NNW 5.8 mph
(NNW 9 kph)
- 10SM
20:35
Clear
64°F / 18°C 57°F / 14°C 78% 30.09 in
(1019 mb)
NNW 6.9 mph
(NNW 11 kph)
- 10SM
19:55
Partly Cloudy
66°F / 19°C 59°F / 15°C 78% 30.06 in
(1018 mb)
NNW 8.1 mph
(NNW 13 kph)
- 10SM
19:35
Partly Cloudy
68°F / 20°C 59°F / 15°C 73% 30.09 in
(1019 mb)
NNW 9.2 mph
(NNW 15 kph)
- 10SM
19:15
Partly Cloudy
70°F / 21°C 59°F / 15°C 69% 30.06 in
(1018 mb)
N 10.4 mph
(N 17 kph)
- 10SM
18:55
Mostly Cloudy
70°F / 21°C 61°F / 16°C 73% 30.06 in
(1018 mb)
NNW 10.4 mph
(NNW 17 kph)
- 10SM
18:35
Partly Cloudy
72°F / 22°C 61°F / 16°C 69% 30.06 in
(1018 mb)
NNW 8.1 mph
(NNW 13 kph)
- 10SM
18:15
Partly Cloudy
72°F / 22°C 61°F / 16°C 69% 30.06 in
(1018 mb)
N 11.5 mph
(N 19 kph)
- 10SM
17:55
Mostly Cloudy
73°F / 23°C 61°F / 16°C 65% 30.06 in
(1018 mb)
NNW 13.8 mph
(NNW 22 kph)
- 10SM
17:35
Mostly Cloudy
72°F / 22°C 57°F / 14°C 61% 30.06 in
(1018 mb)
N 12.7 mph
(N 20 kph)
- 10SM
17:15
Mostly Cloudy
75°F / 24°C 57°F / 14°C 54% 30.04 in
(1017 mb)
N 11.5 mph
(N 19 kph)
- 10SM
16:55
Mostly Cloudy
73°F / 23°C 59°F / 15°C 61% 30.06 in
(1018 mb)
NNE 3.5 mph
(NNE 6 kph)
- 10SM
16:35
Mostly Cloudy
73°F / 23°C 59°F / 15°C 61% 30.06 in
(1018 mb)
N 9.2 mph
(N 15 kph)
- 10SM
16:15
Overcast
72°F / 22°C 59°F / 15°C 65% 30.06 in
(1018 mb)
N 9.2 mph
(N 15 kph)
- 10SM
15:55
Mostly Cloudy
72°F / 22°C 59°F / 15°C 65% 30.06 in
(1018 mb)
NNE 10.4 mph
(NNE 17 kph)
- 10SM
15:35
Mostly Cloudy
73°F / 23°C 59°F / 15°C 61% 30.06 in
(1018 mb)
NNW 10.4 mph
(NNW 17 kph)
- 10SM
15:15
Mostly Cloudy
73°F / 23°C 59°F / 15°C 61% 30.06 in
(1018 mb)
N 11.5 mph
(N 19 kph)
- 10SM
14:55
Mostly Cloudy
73°F / 23°C 61°F / 16°C 65% 30.06 in
(1018 mb)
NW 9.2 mph
(NW 15 kph)
- 10SM
14:35
Overcast
73°F / 23°C 61°F / 16°C 65% 30.06 in
(1018 mb)
NNW 9.2 mph
(NNW 15 kph)
- 10SM
14:15
Mostly Cloudy
72°F / 22°C 61°F / 16°C 69% 30.06 in
(1018 mb)
N 9.2 mph
(N 15 kph)
- 10SM
13:55
Mostly Cloudy
72°F / 22°C 61°F / 16°C 69% 30.06 in
(1018 mb)
NE 9.2 mph
(NE 15 kph)
- 10SM
13:35
Overcast
70°F / 21°C 61°F / 16°C 73% 30.09 in
(1019 mb)
N 11.5 mph
(N 19 kph)
- 10SM
13:15
Overcast
70°F / 21°C 61°F / 16°C 73% 30.09 in
(1019 mb)
NNW 10.4 mph
(NNW 17 kph)
- 10SM
12:55
Overcast
70°F / 21°C 61°F / 16°C 73% 30.09 in
(1019 mb)
N 9.2 mph
(N 15 kph)
- 10SM
12:35
Overcast
68°F / 20°C 61°F / 16°C 78% 30.09 in
(1019 mb)
NNW 10.4 mph
(NNW 17 kph)
- 10SM
12:15
Overcast
68°F / 20°C 61°F / 16°C 78% 30.09 in
(1019 mb)
NW 8.1 mph
(NW 13 kph)
- 10SM
11:55
Overcast
66°F / 19°C 63°F / 17°C 88% 30.09 in
(1019 mb)
NNW 5.8 mph
(NNW 9 kph)
- 10SM
11:35
Overcast
64°F / 18°C 63°F / 17°C 94% 30.09 in
(1019 mb)
NNW 5.8 mph
(NNW 9 kph)
- 10SM
11:15
Overcast
64°F / 18°C 63°F / 17°C 94% 30.09 in
(1019 mb)
N 6.9 mph
(N 11 kph)
- 10SM
10:55
Overcast
64°F / 18°C 63°F / 17°C 94% 30.09 in
(1019 mb)
N 10.4 mph
(N 17 kph)
- 10SM
10:35
Overcast
64°F / 18°C 63°F / 17°C 94% 30.09 in
(1019 mb)
N 6.9 mph
(N 11 kph)
- 7SM
10:15
Overcast
Fog And Mist
63°F / 17°C 63°F / 17°C 100% 30.09 in
(1019 mb)
NNW 9.2 mph
(NNW 15 kph)
- 5SM
09:55
Overcast
Fog And Mist
64°F / 18°C 63°F / 17°C 94% 30.06 in
(1018 mb)
NNW 9.2 mph
(NNW 15 kph)
- 5SM
09:35
Overcast
64°F / 18°C 63°F / 17°C 94% 30.06 in
(1018 mb)
NNW 9.2 mph
(NNW 15 kph)
- 10SM
09:15
Overcast
Fog And Mist
64°F / 18°C 63°F / 17°C 94% 30.06 in
(1018 mb)
NNW 9.2 mph
(NNW 15 kph)
- 5SM
08:55
Overcast
64°F / 18°C 63°F / 17°C 94% 30.06 in
(1018 mb)
NNW 8.1 mph
(NNW 13 kph)
- 7SM
08:35
Overcast
Rain
66°F / 19°C 64°F / 18°C 94% 30.04 in
(1017 mb)
NNW 13.8 mph
(NNW 22 kph)
- 5SM
08:15
Overcast
Fog And Mist
70°F / 21°C 68°F / 20°C 94% 30.06 in
(1018 mb)
N 3.5 mph
(N 6 kph)
- 5SM
07:55
Overcast
Fog And Mist
68°F / 20°C 68°F / 20°C 100% 30.06 in
(1018 mb)
N 5.8 mph
(N 9 kph)
- 5SM
07:35
Overcast
Fog And Mist
68°F / 20°C 68°F / 20°C 100% 30.04 in
(1017 mb)
N 6.9 mph
(N 11 kph)
- 3SM
07:15
Overcast
Fog And Mist
68°F / 20°C 68°F / 20°C 100% 30.04 in
(1017 mb)
N 4.6 mph
(N 7 kph)
- 5SM
06:55
Overcast
Fog And Mist
68°F / 20°C 68°F / 20°C 100% 30.04 in
(1017 mb)
N 6.9 mph
(N 11 kph)
- 4SM
06:35
Overcast
Fog And Mist
68°F / 20°C 68°F / 20°C 100% 30.01 in
(1016 mb)
N 6.9 mph
(N 11 kph)
- 5SM
06:15
Overcast
Fog And Mist
68°F / 20°C 68°F / 20°C 100% 30.01 in
(1016 mb)
Calm - 4SM
05:55
Overcast
68°F / 20°C 68°F / 20°C 100% 30.01 in
(1016 mb)
Calm - 10SM
05:35
Mostly Cloudy
68°F / 20°C 68°F / 20°C 100% 30.01 in
(1016 mb)
NNW 4.6 mph
(NNW 7 kph)
- 10SM
05:15
Partly Cloudy
68°F / 20°C 66°F / 19°C 94% 30.01 in
(1016 mb)
WNW 6.9 mph
(WNW 11 kph)
- 10SM
04:55
Mostly Cloudy
Light Rain
68°F / 20°C 66°F / 19°C 94% 30.01 in
(1016 mb)
WNW 6.9 mph
(WNW 11 kph)
0.01 in
(0.25 mm)
10SM
04:35
Mostly Cloudy
Light Rain
68°F / 20°C 66°F / 19°C 94% 30.01 in
(1016 mb)
W 4.6 mph
(W 7 kph)
0.01 in
(0.25 mm)
10SM
04:15
Overcast
Light Rain
68°F / 20°C 66°F / 19°C 94% 29.98 in
(1015 mb)
Calm - 10SM
03:55
Overcast
Light Rain
68°F / 20°C 64°F / 18°C 88% 29.98 in
(1015 mb)
SSW 6.9 mph
(SSW 11 kph)
- 10SM
03:35
Overcast
Rain
68°F / 20°C 64°F / 18°C 88% 30.01 in
(1016 mb)
W 8.1 mph
(W 13 kph)
- 10SM
03:15
Overcast
Drizzle
68°F / 20°C 64°F / 18°C 88% 29.98 in
(1015 mb)
SSW 8.1 mph
(SSW 13 kph)
- 10SM
02:55
Overcast
Light Rain
68°F / 20°C 64°F / 18°C 88% 30.01 in
(1016 mb)
W 9.2 mph
(W 15 kph)
0.15 in
(3.81 mm)
10SM
02:35
Overcast
Light Rain
68°F / 20°C 66°F / 19°C 94% 30.01 in
(1016 mb)
WNW 10.4 mph
(WNW 17 kph)
0.14 in
(3.56 mm)
7SM
02:15
Overcast
Rain
68°F / 20°C 66°F / 19°C 94% 30.06 in
(1018 mb)
NW 18.4 mph
(NW 30 kph)
0.07 in
(1.78 mm)
10SM
01:55
Overcast
Rain
73°F / 23°C 63°F / 17°C 69% 30.06 in
(1018 mb)
N 16.1 mph
(N 26 kph)
- 10SM
01:35
Mostly Cloudy
75°F / 24°C 70°F / 21°C 83% 30.06 in
(1018 mb)
N 9.2 mph
(N 15 kph)
- 10SM
01:15
Mostly Cloudy
77°F / 25°C 70°F / 21°C 79% 30.04 in
(1017 mb)
SSW 4.6 mph
(SSW 7 kph)
- 10SM
00:55
Partly Cloudy
77°F / 25°C 70°F / 21°C 79% 30.04 in
(1017 mb)
SSW 5.8 mph
(SSW 9 kph)
- 10SM
00:35
Mostly Cloudy
77°F / 25°C 70°F / 21°C 79% 30.04 in
(1017 mb)
SW 4.6 mph
(SW 7 kph)
- 10SM
00:15
Mostly Cloudy
77°F / 25°C 70°F / 21°C 79% 30.01 in
(1016 mb)
SSW 6.9 mph
(SSW 11 kph)
- 10SM
Time Weather Temperature Dewpoint Humidity Pressure Winds Precip Visibility


Weather for websites

WeatherForYou.com, LLC is not responsible for any damages or problems caused by this service. Current weather conditions are obtained from the closest station including government and personal stations which may have varying degrees of accuracy. Weather forecasts are derived from the NOAA NDFD. Like all things, this site belongs to Jesus Christ... He just trusts me to maintain it. If you have any questions or comments email webmaster@weatherforyou.com

Copyright © 2014, WeatherForYou.com LLC. All rights reserved.